Powrót do katalogu

STARLINK-35458

AktywnyŁącznośćVLEO
NORAD 65925·PAYLOAD·🇺🇸 United States

Wystrzelony Oct 8, 2025 z Vandenberg Space Force Base

Loading…

Następne Przeloty (najbliższe 24 godziny)

TLE

ŚwieżeSource: CelesTrak SupGP

Epoka: Sep 14, 2026, 20:57 UTC

1 65925C 25225R   26257.87340278  .00013031  00000+0  38492-3 0  2577
2 65925  53.1588   3.9276 0001199  74.0285 350.6459 15.34390881    17

Śledź STARLINK-35458 w czasie rzeczywistym z AllMySat

Download on the App Store